Wind_Speed
33 32 31 30 30 30 30 28 27 27 28 28 27 26 26 25 24 22 20 20 19 19 18 16 15 13 13 13 14 14 15 16 18 19 20 22 23 23 23 23 21 19 18 16 17 18 19 21 23 24 25 27 29 32 34 36 35 32 29 27 26 26 27 28 30 31 31 31 32 33 34 35 35 35 35 34 34 31 25 23 24 24 23 23 23
35 34 31 31 31 31 30 29 28 28 28 28 27 28 28 26 25 23 22 22 21 21 19 18 16 15 14 14 15 16 17 18 19 20 22 23 24 23 23 22 20 18 17 16 17 18 20 22 24 25 26 28 31 33 35 35 33 30 27 25 24 25 26 28 29 30 31 31 32 32 33 34 35 35 34 34 33 30 24 22 22 22 21 21 22
35 34 32 32 32 31 30 29 29 29 29 28 28 29 29 28 26 24 24 24 23 22 21 19 18 17 16 16 16 17 17 19 20 22 23 24 24 23 21 19 18 17 16 16 17 19 21 23 24 26 27 29 32 34 35 34 31 28 25 24 24 24 26 27 29 30 31 31 31 31 32 34 35 35 34 33 32 29 24 22 22 21 22 23 24
35 35 35 34 32 32 32 32 32 31 30 29 30 30 30 29 28 26 26 25 25 24 23 21 19 18 18 17 17 18 18 20 22 23 24 24 23 21 19 18 16 16 16 16 18 19 21 23 25 26 28 31 33 35 35 33 29 26 24 23 24 25 26 27 28 29 30 31 31 32 34 36 37 37 35 31 30 27 23 21 21 22 23 25 27
36 36 36 35 34 35 35 35 35 34 32 31 31 32 31 31 29 28 28 27 26 26 24 22 21 21 20 19 19 19 19 21 22 23 23 22 20 19 18 17 16 16 16 17 18 20 21 23 25 27 29 31 34 35 34 31 27 24 22 22 24 25 26 27 28 28 29 30 32 33 35 37 38 38 35 30 27 24 21 20 20 21 22 24 27
37 37 37 37 37 38 38 38 38 36 34 33 33 33 33 32 30 30 30 29 28 27 26 24 24 23 22 21 20 20 20 21 23 23 21 18 17 17 17 17 17 17 17 18 19 21 22 23 25 27 29 32 35 35 32 29 25 22 21 22 23 25 25 26 27 28 28 30 32 34 36 37 37 35 33 29 26 23 19 19 19 20 20 22 25
37 37 38 39 40 40 40 40 39 37 35 34 34 34 34 33 32 32 32 31 31 29 28 27 26 26 24 22 22 22 22 22 23 22 18 15 14 16 17 19 19 19 19 20 20 21 22 24 25 27 30 33 35 34 30 26 23 21 21 22 23 24 24 24 26 27 28 30 33 35 36 36 35 32 30 28 26 22 19 19 19 20 20 21 25
39 38 38 40 41 42 42 41 40 39 36 35 35 36 36 35 34 33 33 33 33 31 30 30 29 27 26 24 24 24 24 24 24 21 16 13 13 15 17 19 20 21 21 21 21 22 23 24 25 28 31 34 34 32 28 23 20 19 20 21 22 23 22 23 25 26 28 30 34 36 37 35 34 30 26 24 24 21 19 20 22 23 23 23 25
41 40 39 40 41 41 41 41 41 40 38 38 38 38 38 37 35 35 35 35 34 33 33 32 31 29 28 27 27 26 25 24 23 20 15 13 14 15 17 20 21 21 22 22 22 23 25 25 26 29 32 34 34 31 25 21 19 18 19 19 20 20 20 21 23 25 27 30 34 36 36 35 32 29 25 22 21 20 17 18 22 24 25 27 26
42 42 41 40 39 39 40 41 41 41 41 41 41 41 40 39 37 37 37 36 35 35 36 35 34 32 30 29 29 27 26 25 23 20 17 15 15 16 18 20 22 22 22 22 23 24 26 27 27 29 32 34 34 29 24 19 17 17 19 19 19 19 19 20 22 25 27 30 32 34 34 33 30 29 28 26 22 17 14 13 16 19 23 27 30
43 43 42 40 38 38 39 41 42 43 43 43 43 42 42 41 40 40 39 38 38 38 38 38 36 34 32 32 30 28 26 25 23 21 19 17 17 18 19 21 22 23 24 24 24 25 27 27 28 30 33 34 33 28 22 18 16 17 18 18 19 19 20 21 22 23 26 30 31 30 30 30 27 26 29 29 25 19 15 13 12 18 28 34 38
44 43 42 40 39 38 38 40 42 44 44 44 44 44 43 43 43 42 42 41 40 40 40 40 38 35 34 33 32 29 27 26 25 23 21 20 20 20 21 22 23 24 25 25 25 26 27 28 29 30 33 34 32 26 21 17 16 17 17 17 18 19 21 22 22 21 24 27 27 26 28 30 29 27 26 26 26 24 23 21 21 28 40 48 51
45 44 42 41 40 39 38 39 41 43 44 45 45 45 45 46 45 45 44 43 42 42 42 41 39 37 35 34 32 30 28 27 26 25 24 23 22 22 23 24 25 26 27 27 27 28 28 28 29 31 33 33 31 25 20 17 16 16 16 16 16 18 20 21 21 21 21 21 23 28 34 37 34 30 29 30 32 34 34 35 37 40 44 49 53
45 44 43 42 42 41 39 39 40 41 43 44 45 46 47 47 47 46 46 45 44 44 43 41 39 37 36 34 32 30 29 28 27 27 26 25 24 25 26 26 27 28 28 29 29 29 29 29 29 31 33 33 30 24 20 17 16 15 15 14 15 16 18 19 21 20 19 21 29 35 38 39 40 39 41 43 45 45 44 43 43 41 40 43 50
45 45 44 43 43 41 40 40 39 39 40 41 43 45 46 47 47 47 47 46 46 46 44 43 41 39 36 34 32 31 29 28 28 29 28 28 28 28 28 28 29 30 30 30 31 30 30 30 30 31 33 33 29 24 20 18 16 15 15 14 14 14 15 18 20 20 25 33 39 38 35 37 44 49 51 51 48 47 45 45 44 37 33 40 51
46 46 45 45 44 43 41 40 40 39 39 39 41 42 44 45 46 46 46 47 47 47 46 45 43 41 38 35 33 32 30 29 30 30 30 30 30 31 31 31 32 32 31 31 32 32 31 31 31 32 33 32 29 24 20 19 17 16 15 14 13 13 13 15 16 21 32 40 42 42 43 45 49 53 53 49 44 39 37 42 45 38 30 37 49
47 47 47 46 46 44 43 41 41 40 39 39 40 40 41 42 42 43 44 45 46 47 47 46 45 43 41 38 35 33 32 31 32 32 31 32 33 33 33 33 34 33 33 33 33 32 32 32 32 33 33 33 29 24 21 20 19 17 17 15 13 12 12 11 16 26 37 42 44 47 49 48 48 49 49 47 44 38 35 38 43 41 34 34 40
48 48 48 48 47 46 44 43 42 41 40 39 38 38 39 40 40 40 41 42 43 44 45 45 45 45 44 41 38 36 34 33 33 33 33 34 35 35 35 36 36 35 34 34 34 33 33 33 34 34 34 34 31 25 22 21 20 18 18 16 13 12 12 15 24 34 42 45 46 46 46 45 45 48 50 51 50 47 43 43 45 46 44 41 41
50 49 49 48 48 47 46 44 43 42 41 40 38 37 37 38 39 39 40 40 41 41 42 43 44 44 44 43 41 39 37 35 35 36 35 36 37 37 38 38 37 36 35 35 35 35 34 34 35 35 36 35 32 26 22 21 21 20 19 17 15 13 13 16 26 38 46 48 46 44 44 44 43 46 49 53 54 53 52 52 53 53 53 52 50
50 50 50 49 48 48 47 45 44 43 43 41 39 37 37 37 37 38 38 39 39 40 40 41 42 42 43 43 43 42 40 38 38 38 37 38 40 40 40 40 38 36 36 36 36 36 35 35 35 37 37 36 33 28 24 23 23 21 20 18 16 14 10 11 22 37 46 47 43 40 42 42 42 45 48 51 54 55 54 54 54 55 55 55 54
49 50 50 50 50 49 47 46 45 44 44 42 41 39 38 37 37 37 38 38 38 39 39 39 40 40 41 42 43 43 43 41 41 41 40 40 41 42 42 41 39 37 37 37 37 37 36 36 37 37 38 37 35 30 27 25 24 23 21 19 19 18 15 15 23 34 39 39 39 39 41 42 44 46 47 49 53 55 55 55 55 55 55 55 54
47 49 50 50 50 50 49 47 46 45 45 44 42 41 40 39 38 38 38 38 38 38 39 39 39 39 40 41 42 44 44 43 43 42 42 42 43 43 43 42 39 37 38 39 38 38 37 37 38 39 39 39 37 32 28 26 25 24 23 21 21 24 23 21 24 30 33 35 38 40 42 44 45 47 49 51 54 56 58 59 59 58 57 56 52
47 48 49 50 51 51 50 49 48 47 47 46 45 44 42 41 39 38 38 38 38 38 39 39 40 40 40 41 42 43 44 44 44 44 44 44 44 44 43 42 40 38 39 40 40 39 39 39 41 41 41 40 37 32 28 27 27 26 26 24 24 28 28 25 25 28 31 34 37 40 43 45 46 48 50 52 54 56 57 58 60 61 60 57 52
45 46 48 50 51 51 51 50 50 49 50 49 48 46 45 43 41 40 39 39 39 38 39 39 40 41 41 41 42 43 43 44 44 44 44 44 44 44 43 42 40 39 40 42 41 41 41 42 42 42 41 40 36 32 30 30 29 29 28 27 27 29 31 30 29 29 30 32 36 39 41 43 45 47 50 51 53 55 55 56 58 59 60 57 53
44 45 47 48 50 51 52 52 53 53 53 52 51 49 47 45 44 42 41 41 40 40 40 39 40 40 41 41 41 42 42 43 43 43 43 43 43 43 42 41 40 41 42 43 43 43 43 43 43 42 42 40 37 34 33 33 32 31 30 30 30 30 31 32 32 32 32 33 35 38 40 42 44 46 48 50 52 53 52 52 54 56 57 56 54
42 44 46 48 49 50 52 53 55 56 56 55 54 52 50 48 47 45 44 44 43 41 40 39 39 39 39 40 40 40 41 41 42 42 42 42 41 41 41 41 42 43 44 44 45 45 44 44 44 44 43 42 40 37 36 35 35 34 33 32 32 33 33 34 34 35 36 36 38 39 41 43 44 46 48 49 51 52 50 49 50 53 55 53 53
41 42 45 47 48 50 52 53 55 56 56 56 55 53 52 51 50 49 48 46 45 43 42 41 40 40 39 39 39 39 40 41 41 41 41 41 41 41 42 43 43 44 45 46 46 46 46 46 46 45 45 43 41 39 38 37 37 36 35 35 35 35 36 36 37 39 39 40 41 42 44 45 46 47 49 50 52 52 51 48 48 51 52 51 52
41 41 43 45 47 49 51 52 53 54 55 55 55 54 53 52 52 51 50 48 47 46 45 44 43 43 42 41 41 41 41 41 42 42 41 41 42 43 44 45 46 47 48 49 49 49 48 48 48 47 46 44 43 41 40 39 39 38 38 37 37 38 38 39 40 41 43 44 45 46 47 48 49 49 50 52 53 54 53 51 51 52 52 51 51
41 41 42 43 45 47 49 50 52 54 55 55 55 55 54 54 53 52 51 50 50 49 48 47 47 46 45 44 44 44 44 44 44 44 44 44 45 46 47 48 49 50 50 51 51 50 50 50 49 48 47 45 44 43 42 41 41 41 40 40 40 41 41 42 43 44 45 47 48 49 51 52 52 52 53 54 55 56 55 54 53 55 56 55 54
41 41 41 42 43 44 46 48 50 52 54 55 56 56 56 55 54 54 53 53 52 51 51 50 50 49 47 47 47 47 47 47 47 46 47 47 48 49 50 50 51 51 52 51 51 51 51 51 51 49 48 47 46 45 44 44 44 44 43 43 43 44 45 45 46 47 48 49 51 52 54 55 55 55 56 57 58 58 58 57 56 57 59 58 57
42 41 41 41 41 42 43 45 47 50 52 54 56 57 57 57 56 56 55 54 54 53 53 53 52 51 50 49 49 49 49 49 49 49 50 50 51 51 51 52 51 52 52 52 52 53 53 53 52 50 49 48 47 46 46 46 47 46 46 46 46 47 48 48 49 50 50 51 53 55 57 58 58 58 59 60 60 61 61 59 58 59 62 62 61
42 42 42 42 41 42 42 43 44 46 48 50 53 55 56 57 57 57 57 56 55 55 55 54 54 53 53 52 51 51 52 51 51 51 52 52 52 52 52 52 52 53 53 54 55 55 55 53 52 51 50 49 48 48 49 49 49 48 48 49 50 50 51 51 52 53 53 54 55 58 60 61 61 61 62 63 63 63 63 60 58 60 63 65 65
45 44 43 43 42 42 42 42 43 44 45 47 49 51 54 56 57 57 58 57 57 57 56 56 56 56 55 54 54 54 54 54 53 54 54 54 54 54 54 54 55 56 55 54 54 53 52 52 51 51 50 50 50 51 51 51 51 51 51 52 53 53 54 54 55 56 56 57 58 60 62 63 64 64 65 66 66 66 64 61 59 61 64 66 67
48 47 45 44 44 43 43 42 42 43 43 44 46 48 50 52 54 56 57 57 57 57 57 57 58 58 57 56 56 56 57 56 56 56 56 56 56 57 57 58 58 57 56 55 53 50 49 49 50 51 51 52 53 53 53 53 53 53 54 55 56 56 57 57 58 58 59 60 61 63 64 65 66 67 67 68 69 69 66 62 62 64 66 67 68
51 49 48 47 46 45 44 43 42 42 43 43 44 45 47 48 50 52 53 55 56 57 57 58 59 59 58 57 58 59 59 58 58 58 58 58 58 58 58 58 58 58 58 56 54 52 50 50 51 52 52 53 53 53 53 54 55 56 56 57 58 59 59 60 60 61 62 63 64 66 67 68 69 69 70 70 71 71 68 65 66 68 68 68 68
53 52 51 50 49 48 47 45 44 43 43 43 43 44 45 45 46 48 49 51 53 54 56 57 58 59 59 59 59 60 61 60 59 58 59 59 58 56 55 55 56 57 56 56 56 56 56 56 57 56 56 55 54 54 55 55 56 58 59 60 61 61 62 62 63 64 65 66 68 69 69 70 71 71 72 73 74 73 70 67 68 71 72 70 69
55 55 54 53 52 51 50 48 47 45 44 43 43 43 43 44 44 45 46 48 49 51 53 55 56 57 57 58 58 59 60 59 59 57 57 56 54 53 52 52 54 55 55 54 55 56 56 57 59 59 59 59 58 58 59 59 59 61 62 63 63 64 65 66 66 67 68 69 70 71 72 72 73 74 74 75 76 75 72 70 70 74 76 76 74
58 57 57 56 55 54 53 51 50 49 48 47 45 44 44 44 44 44 45 46 47 48 50 51 53 54 54 54 55 56 56 56 55 54 53 52 52 52 51 52 54 56 55 54 55 54 54 55 56 57 58 60 60 61 62 62 63 64 65 66 67 67 68 69 70 71 71 72 73 74 75 75 75 76 77 78 79 77 74 72 72 76 80 82 81
60 60 59 58 58 57 55 54 53 53 52 51 49 48 47 46 45 45 46 47 47 47 48 49 50 51 52 52 52 52 52 52 52 52 51 51 52 52 53 55 57 59 59 60 60 60 60 60 59 58 59 60 62 63 65 66 67 68 68 69 70 71 72 73 74 74 74 75 76 77 77 77 78 79 79 81 81 78 74 72 74 79 83 84 83
63 62 61 61 60 59 58 57 56 55 54 54 53 52 51 50 49 48 49 50 49 48 48 50 51 51 51 51 51 51 51 51 50 51 51 52 53 55 58 60 62 63 63 64 64 64 64 65 65 64 65 65 66 67 68 69 70 71 72 73 74 75 76 77 77 77 78 78 79 79 80 80 81 81 82 83 81 76 72 72 77 82 86 86 83
65 65 64 63 62 61 61 60 59 58 57 56 55 55 55 54 53 52 52 53 53 50 50 53 55 54 52 52 53 52 52 52 52 52 52 53 55 58 61 63 64 65 65 66 66 67 68 69 70 71 71 71 71 72 72 73 73 74 75 76 77 78 79 80 80 81 81 81 81 82 83 83 83 85 85 82 77 72 72 75 80 85 87 87 83
67 67 66 65 64 63 63 62 61 61 60 58 57 57 56 56 55 53 52 54 57 57 57 59 59 56 55 55 55 54 55 55 55 54 55 56 58 60 63 64 66 67 68 69 70 71 72 73 74 75 75 75 75 76 76 77 77 78 78 79 80 81 82 82 83 83 83 83 84 84 85 86 87 86 83 78 74 73 76 80 83 86 88 86 83
69 68 67 67 66 66 65 65 64 64 63 61 60 59 57 57 58 56 54 57 61 63 62 62 61 60 59 59 58 58 58 58 58 58 59 59 61 62 64 65 67 68 70 71 73 74 75 75 76 77 77 78 78 79 80 80 80 81 81 82 82 83 84 85 85 85 85 86 86 87 89 89 87 82 78 76 77 80 82 84 85 86 86 85 82
72 71 70 69 69 69 68 68 67 66 65 65 63 60 57 59 62 62 60 62 65 66 64 63 62 62 61 61 61 62 62 62 62 62 63 63 64 65 66 67 69 70 71 73 74 75 76 76 77 78 79 79 80 81 82 82 83 83 83 84 85 86 86 87 87 87 87 88 90 91 90 86 81 80 81 83 84 85 86 87 88 88 87 85 81
75 73 73 73 72 71 71 71 70 69 68 67 66 63 61 63 66 66 65 65 66 66 65 64 63 62 62 63 64 65 65 65 66 66 67 67 68 68 69 70 71 72 73 74 75 76 77 77 78 79 80 82 82 83 84 85 85 86 86 87 88 88 88 89 89 89 90 91 91 89 85 82 81 84 88 89 90 91 91 91 91 90 88 86 83
78 76 75 75 74 74 73 72 72 72 71 70 69 68 66 66 68 69 69 69 69 68 67 67 66 66 66 66 67 67 68 68 69 70 70 71 72 72 73 74 75 75 76 77 78 79 79 80 81 82 83 84 85 86 86 87 88 89 90 90 91 91 91 92 92 92 92 89 86 83 82 83 86 89 91 93 94 96 96 95 94 92 90 88 84
80 78 77 77 76 76 75 74 74 74 73 72 72 71 70 70 70 70 71 72 72 72 72 72 71 71 71 70 70 70 71 72 73 73 74 74 75 76 77 77 78 79 79 80 81 82 83 83 84 85 86 87 88 88 89 90 91 92 93 94 94 95 95 95 94 94 91 87 84 83 85 88 91 93 96 98 99 99 99 98 96 93 91 88 86
81 80 79 79 78 78 78 77 76 76 75 75 74 73 73 73 72 72 73 73 73 74 74 75 74 74 74 74 74 74 74 75 76 76 77 78 79 80 81 81 82 82 83 84 84 85 86 86 87 88 89 90 90 91 92 93 93 95 96 96 97 98 97 97 97 95 92 88 88 89 91 94 98 101 101 101 101 101 100 99 96 93 91 88 86
84 82 81 81 81 81 81 80 80 79 78 77 77 76 76 75 75 74 74 74 74 74 75 76 76 76 76 76 77 77 78 78 79 79 80 81 82 83 84 84 85 86 86 87 87 88 89 89 90 90 91 92 93 94 94 95 96 97 98 99 100 100 100 100 99 95 91 90 92 93 95 100 105 107 105 103 102 102 100 98 96 93 90 88 87
86 84 83 82 82 82 82 82 81 81 80 80 79 79 78 77 77 77 77 77 76 76 76 77 78 78 79 80 80 81 81 82 82 83 84 85 86 87 88 88 89 89 90 90 91 91 91 92 93 93 94 95 95 95 96 97 98 99 100 101 101 100 99 97 95 91 91 93 96 96 99 106 111 110 107 105 103 102 100 98 96 94 92 90 89
88 87 85 84 83 83 82 82 81 81 81 81 80 80 80 79 79 79 78 78 78 78 78 78 78 79 80 81 82 83 84 85 85 86 87 89 90 90 91 91 91 92 92 93 93 94 94 94 94 94 94 95 95 96 97 98 99 99 99 99 98 97 94 93 92 92 95 97 98 100 107 114 116 113 109 106 104 103 101 100 98 96 95 94 93
Wind_Direction
233 231 230 232 235 238 239 239 238 238 239 240 239 236 233 232 232 231 229 230 233 235 238 241 245 249 255 263 272 281 288 294 300 304 308 312 315 317 318 318 318 318 318 319 321 325 328 329 331 334 335 337 338 339 341 342 344 348 352 358 1 2 3 3 5 5 4 4 3 1 359 358 360 1 2 4 5 4 4 3 5 8 8 6 6
237 236 232 231 234 238 240 242 241 241 242 243 241 238 237 237 237 235 232 231 234 237 240 243 247 252 257 265 274 282 290 297 303 307 311 314 316 316 317 317 316 314 315 317 321 325 326 328 329 332 334 335 336 338 340 342 345 349 354 359 2 4 4 3 3 2 0 0 1 359 357 356 357 359 0 3 7 9 11 12 15 18 18 18 18
236 239 237 234 234 239 243 244 244 243 243 243 241 240 241 241 242 240 236 235 237 240 243 246 249 253 259 266 274 283 292 300 305 309 312 314 315 315 315 314 313 313 314 318 322 324 325 326 328 330 332 334 335 338 340 342 345 350 355 360 2 5 5 2 0 358 356 358 359 358 356 355 355 357 359 3 9 13 17 20 25 29 30 32 33
236 238 239 236 233 236 241 244 245 245 244 242 241 241 242 244 245 243 240 239 240 243 246 249 252 255 260 267 275 284 293 300 305 309 311 313 314 315 313 311 311 313 316 320 321 321 323 325 327 328 330 333 335 337 339 341 345 350 357 0 2 4 4 359 356 355 354 355 357 358 356 355 356 356 358 5 12 16 21 26 32 37 36 37 38
236 236 239 238 234 232 235 240 242 243 243 242 242 243 243 245 246 244 242 242 243 245 248 252 254 257 262 267 275 284 292 298 303 306 309 312 313 313 311 310 311 313 316 318 319 319 322 324 325 327 329 332 335 337 339 341 345 351 358 2 2 3 1 355 352 353 353 354 357 358 357 356 356 356 356 5 14 20 27 34 37 44 46 43 38
237 237 237 237 235 232 232 236 239 240 241 242 243 244 245 246 246 245 245 245 245 246 249 251 255 258 262 268 275 283 289 295 299 303 307 310 312 312 312 312 312 312 314 315 316 317 320 321 323 326 329 332 335 337 338 340 344 351 358 3 3 0 356 352 350 351 353 354 355 358 359 358 357 357 357 3 12 20 32 41 43 46 50 45 36
237 237 237 237 237 234 232 233 237 238 240 243 246 247 248 248 247 247 247 247 247 248 249 251 254 258 263 268 275 280 286 292 295 298 302 305 310 314 316 316 314 313 313 313 313 315 318 320 322 326 329 333 335 336 338 339 344 351 358 2 1 357 352 350 349 350 352 353 354 357 360 359 358 360 359 0 6 14 26 39 41 40 40 34 24
236 237 237 237 238 237 235 235 236 237 239 242 245 248 249 249 249 248 249 249 250 251 251 252 254 257 262 267 271 276 283 288 292 294 294 298 305 312 315 315 314 313 312 312 312 314 316 319 322 326 330 332 335 336 337 338 342 350 358 1 358 352 349 348 347 349 352 354 355 356 358 360 1 0 359 0 4 9 20 35 37 31 25 18 11
236 237 238 239 239 240 240 239 238 238 238 240 243 245 247 249 250 250 251 252 252 253 252 253 255 257 260 264 268 273 279 284 287 287 285 289 297 303 308 310 311 312 310 309 311 313 315 318 321 325 329 332 334 334 334 336 341 348 355 359 356 350 345 343 344 347 351 355 357 357 357 0 2 2 2 4 5 9 18 33 37 29 15 3 354
236 237 238 240 241 241 242 241 240 237 237 239 241 243 246 249 250 251 251 252 253 253 253 254 255 257 260 263 267 271 277 281 281 278 277 281 288 294 299 302 307 310 308 307 309 311 315 318 320 324 329 332 332 332 331 333 339 346 351 353 352 347 341 340 343 346 350 355 360 359 356 360 8 13 12 10 9 8 5 13 28 23 5 353 346
235 236 238 240 242 242 241 241 241 239 237 238 240 242 245 247 249 250 251 252 252 253 254 255 257 259 261 264 267 271 275 278 275 270 271 276 281 288 293 297 303 307 307 307 307 310 314 316 318 323 328 330 331 329 327 329 337 344 347 348 349 344 339 339 342 347 350 354 0 3 359 357 3 6 3 1 3 1 347 341 353 348 338 335 332
235 236 237 239 241 242 242 241 241 241 240 239 240 242 244 246 248 249 250 251 252 253 255 256 258 259 261 264 267 271 273 272 268 266 268 273 278 285 290 294 299 304 306 306 306 308 312 314 317 322 326 328 328 325 322 326 334 339 342 345 346 343 339 337 338 345 353 354 357 360 354 348 348 350 350 350 351 347 336 323 318 323 324 323 322
235 236 236 238 240 242 243 243 243 243 243 242 242 243 244 245 247 249 250 251 252 253 254 255 257 259 261 263 266 267 267 266 264 264 266 271 277 283 288 292 296 300 304 306 305 307 310 312 316 320 324 326 325 320 316 321 328 332 335 340 344 342 337 333 334 343 353 354 348 345 342 339 339 342 342 338 332 327 322 314 309 310 315 316 317
236 236 237 238 239 241 243 244 244 245 245 246 246 246 246 246 248 249 250 251 251 252 254 255 256 258 259 260 261 261 261 263 263 263 265 271 277 283 287 291 294 296 300 303 304 305 308 311 314 318 322 323 321 315 311 314 321 325 327 334 340 340 336 332 335 342 346 341 335 335 337 333 328 327 327 327 326 324 321 316 312 313 317 317 314
237 237 237 238 240 241 242 244 245 246 246 247 248 248 249 249 250 250 251 252 252 252 253 254 254 255 255 255 256 256 257 259 261 261 264 271 276 281 286 289 291 293 296 300 302 303 306 309 311 315 319 320 317 310 304 308 314 316 319 329 336 337 334 330 333 339 338 335 332 331 327 321 318 319 321 323 326 328 327 321 317 322 324 313 308
236 236 237 238 239 240 242 243 245 246 247 248 249 250 250 250 251 252 252 252 252 252 253 252 253 253 253 252 253 253 254 257 258 260 264 269 274 279 283 286 289 290 293 296 298 301 303 306 308 311 315 316 313 305 299 301 305 307 312 322 331 333 330 328 332 338 336 331 326 322 316 311 311 315 318 321 325 327 326 320 317 322 320 306 305
235 235 236 237 238 239 241 242 244 245 246 247 249 250 251 251 251 252 252 253 253 253 253 253 253 253 252 251 251 251 252 254 257 260 263 268 272 276 280 283 286 288 291 293 295 298 301 303 305 307 311 313 309 300 294 297 301 304 306 314 325 326 321 326 334 333 328 324 320 319 317 314 316 320 322 323 324 323 321 317 316 319 316 308 310
234 234 235 236 237 238 239 241 242 243 244 245 247 249 250 251 251 252 253 254 254 254 255 255 254 253 252 251 251 251 252 253 256 259 263 267 271 274 277 280 283 286 288 290 292 295 297 299 302 304 307 310 307 298 291 293 299 301 303 309 318 316 313 324 329 326 323 321 320 320 319 319 322 325 325 324 324 323 321 319 318 319 317 313 312
234 234 234 235 235 236 238 239 241 242 242 244 246 248 250 251 252 252 253 254 255 255 255 255 254 254 253 252 251 251 252 253 256 259 262 266 270 273 275 278 281 284 286 287 289 292 294 296 299 301 304 307 305 297 289 289 293 295 299 307 312 314 321 328 325 323 322 319 315 314 316 320 323 325 325 326 327 328 328 326 323 320 318 315 313
235 234 234 234 235 235 236 238 239 241 243 244 245 247 249 250 251 251 252 253 254 254 255 255 255 254 254 253 251 251 251 253 255 258 261 265 269 272 274 276 279 283 283 283 286 289 292 294 295 298 301 304 302 294 285 284 287 290 296 304 306 308 314 312 313 316 313 308 309 314 318 322 325 326 327 328 328 329 330 328 323 319 317 315 314
238 236 235 234 234 235 236 237 238 241 242 244 245 246 247 248 248 249 249 249 250 251 252 254 254 255 255 254 252 251 251 252 255 258 261 264 268 271 272 275 278 280 279 280 283 286 289 291 292 295 298 300 298 291 283 283 286 289 294 297 297 298 291 281 296 307 305 303 309 317 319 322 325 325 326 327 327 327 327 326 324 322 320 318 316
239 238 237 236 235 235 236 236 237 240 242 243 243 244 245 246 248 248 248 248 248 249 250 252 253 254 254 254 253 252 251 251 254 257 261 263 266 269 271 274 277 277 277 278 281 284 286 288 289 292 295 296 295 290 283 283 286 288 291 292 292 295 294 283 286 297 302 306 312 315 318 321 323 323 325 327 326 326 327 327 326 324 321 317 315
238 238 238 237 236 236 236 236 237 239 240 241 242 242 243 244 246 248 248 249 249 248 249 250 251 252 252 252 253 252 252 252 253 256 260 263 265 268 270 273 275 274 275 277 280 282 284 285 287 290 292 295 294 287 280 281 283 285 288 288 285 289 293 291 287 289 293 298 304 309 314 318 320 322 324 325 324 325 326 327 327 325 322 318 314
237 238 238 238 238 237 236 236 237 237 238 239 240 241 242 242 244 246 247 248 248 248 249 249 250 250 251 251 253 253 253 254 254 256 259 262 264 267 269 271 272 272 274 276 279 281 282 284 286 289 291 293 290 282 277 278 280 282 285 286 283 282 286 290 290 290 292 294 299 304 309 312 316 319 321 321 322 323 325 326 326 325 323 319 313
238 238 238 238 238 237 237 236 236 236 237 238 239 240 241 242 242 244 245 246 247 248 248 249 250 251 251 252 253 254 255 256 256 257 259 261 263 266 268 269 270 271 274 276 278 280 282 284 286 288 290 290 285 278 274 275 278 281 283 285 285 285 286 289 291 293 295 297 300 303 306 310 313 316 318 319 319 321 322 324 324 323 323 320 315
240 239 239 239 238 238 237 237 237 237 238 238 239 240 241 242 243 243 243 245 246 248 249 251 252 252 253 253 254 255 256 257 257 258 259 260 262 264 266 267 269 271 273 275 277 279 280 282 283 285 287 286 281 275 273 274 278 281 283 285 286 288 290 292 294 296 297 299 302 304 306 309 312 314 316 317 317 318 319 320 322 321 320 319 317
240 239 240 240 240 239 238 238 238 238 239 241 242 242 243 244 244 244 245 245 247 249 250 252 252 252 253 253 253 254 255 256 257 258 259 260 261 262 264 266 268 270 272 273 275 277 278 279 281 283 285 283 279 274 272 274 277 281 283 285 286 288 291 293 295 297 299 302 304 306 308 310 312 313 315 316 316 316 316 316 319 319 317 316 314
239 239 239 240 240 241 241 240 240 240 240 241 243 244 244 245 246 247 247 248 249 250 251 251 252 252 252 253 253 254 255 256 257 259 260 261 261 262 263 265 267 269 270 272 273 275 277 278 280 282 283 280 275 272 271 274 278 280 282 284 285 287 290 292 295 298 300 303 305 308 309 311 312 313 315 316 316 315 315 315 316 318 317 315 313
240 240 239 240 240 240 241 241 241 241 241 241 242 243 244 245 246 247 248 248 249 250 251 252 252 252 253 254 254 255 255 256 258 259 260 260 261 263 264 266 268 269 271 272 274 275 277 278 280 281 280 276 272 270 271 274 277 280 282 284 285 286 289 291 294 297 300 303 305 307 309 310 312 313 314 316 316 316 315 315 316 317 319 318 316
241 241 241 241 241 241 241 241 241 241 241 241 242 243 244 245 246 247 248 248 250 251 252 253 253 254 254 255 256 256 257 258 258 259 260 261 263 264 266 268 269 270 271 273 274 276 277 277 278 277 275 272 270 269 271 274 277 280 282 284 285 286 288 291 294 297 300 303 305 306 308 309 311 312 313 315 316 316 315 314 314 317 319 319 318
240 241 241 241 241 242 243 243 243 242 242 242 242 242 243 244 245 246 247 248 249 251 252 254 255 255 256 256 257 257 258 258 259 259 260 262 263 265 267 269 270 270 271 273 274 275 276 276 275 274 272 270 269 269 271 274 277 279 282 284 284 286 288 290 293 296 299 302 304 306 307 308 310 312 313 314 315 315 314 312 312 315 318 319 319
239 240 241 242 242 242 243 244 244 244 243 243 242 242 243 244 245 246 247 248 249 250 252 253 254 255 256 256 257 257 258 258 259 259 260 262 263 265 266 267 268 269 271 273 274 275 275 275 274 272 270 269 268 269 271 273 276 280 282 283 284 285 287 289 292 295 298 301 303 304 306 308 309 311 312 313 314 314 312 310 311 314 318 319 319
239 240 241 242 243 243 244 244 244 244 244 243 243 243 243 243 244 245 246 247 248 249 250 252 253 254 255 255 256 256 257 258 258 259 261 261 263 264 265 267 269 271 273 275 275 274 275 274 273 271 269 268 268 269 271 274 277 279 281 282 283 285 287 289 292 294 297 300 302 303 305 306 308 310 311 312 313 313 311 309 310 314 318 319 319
241 241 241 242 243 244 244 245 245 245 245 244 243 243 243 243 244 245 246 247 248 249 250 251 252 253 253 254 254 255 256 257 258 259 260 261 263 265 268 270 272 273 274 274 273 272 272 272 270 268 267 267 269 270 272 275 277 278 280 281 283 284 286 289 291 294 297 299 301 302 304 305 307 309 310 311 311 312 310 308 309 313 317 318 318
241 242 242 242 242 243 244 245 246 246 247 246 245 244 244 244 244 245 246 247 248 249 250 250 251 252 252 253 253 254 255 256 257 259 261 263 265 267 270 272 273 274 273 271 269 269 269 268 267 266 265 267 269 272 273 274 275 277 279 281 282 284 286 288 291 294 296 298 300 302 303 304 306 308 309 309 310 310 309 307 308 313 316 317 317
241 242 242 242 242 242 243 243 244 246 248 248 248 247 246 245 245 245 246 247 248 249 250 251 251 252 252 253 254 255 256 257 258 260 262 264 267 270 272 274 274 272 270 268 267 266 267 267 266 266 266 268 270 271 273 275 276 278 280 281 283 285 286 289 291 294 296 298 299 301 302 303 305 307 307 308 309 309 307 306 308 312 315 316 316
241 241 242 243 243 243 243 243 244 244 245 246 248 249 249 248 248 247 247 247 248 249 250 251 252 253 254 254 255 256 258 259 260 261 262 264 266 268 268 269 269 269 269 268 268 267 267 268 269 268 268 269 271 272 275 276 278 279 281 282 284 285 287 289 291 293 295 297 298 300 301 303 304 305 306 306 307 308 306 305 307 311 315 317 316
241 241 242 242 243 244 244 244 244 244 244 244 245 246 247 249 249 249 249 249 250 250 251 252 254 255 255 256 256 257 258 259 261 261 261 262 261 261 261 262 265 267 267 266 265 265 265 268 270 270 269 270 271 273 275 277 278 280 281 283 284 286 287 289 291 293 295 296 298 299 300 302 303 304 304 305 306 306 304 303 305 310 314 316 316
242 242 241 242 242 244 245 245 245 245 245 245 245 245 246 247 248 249 250 250 251 251 253 254 254 255 256 256 256 257 258 258 258 259 260 258 257 257 259 261 262 263 263 264 265 267 268 269 271 273 272 272 273 274 275 277 278 280 281 283 284 286 287 289 291 292 294 295 297 298 299 301 302 303 303 304 305 304 302 302 305 309 313 315 315
242 243 242 242 243 244 245 245 246 246 247 247 247 246 246 246 247 249 251 252 252 254 256 258 258 256 256 257 257 256 256 257 256 256 257 257 256 256 259 260 261 261 263 265 268 271 272 272 273 274 275 275 275 275 276 277 278 280 282 283 284 286 287 289 291 292 294 295 296 298 299 300 301 302 302 303 303 301 301 302 306 309 312 313 313
243 244 244 244 244 244 245 246 247 247 247 248 249 249 249 249 249 249 251 253 254 253 255 258 259 258 256 258 259 257 256 256 256 256 256 256 256 256 258 260 262 263 265 266 268 269 271 271 272 273 274 275 275 276 277 278 279 280 282 283 284 286 288 289 291 292 293 295 296 298 299 299 300 301 301 301 300 300 301 303 306 309 310 311 311
243 244 245 245 245 246 247 247 248 248 248 249 250 251 251 252 252 253 255 258 258 256 253 254 257 257 256 257 258 258 258 258 258 258 257 257 256 257 258 260 262 263 265 266 267 268 269 270 271 272 273 274 275 276 278 279 280 281 282 283 285 286 288 289 290 292 294 295 297 297 298 299 300 300 300 299 299 300 302 304 307 308 310 310 310
241 242 244 246 247 247 248 249 249 249 249 250 250 251 253 255 255 253 253 256 258 258 257 256 258 259 259 259 260 260 260 261 261 261 261 260 260 259 260 260 261 262 263 265 266 267 268 269 271 272 273 275 276 277 278 279 280 281 282 284 285 287 288 289 291 293 294 296 296 297 298 299 299 299 298 299 299 301 303 305 307 308 309 309 309
239 241 243 245 246 248 249 250 250 250 250 250 250 250 251 254 256 254 252 251 253 256 259 260 261 262 262 263 263 264 264 264 264 265 265 265 265 265 265 264 264 264 265 266 267 268 269 271 272 273 274 275 276 277 278 279 280 282 283 285 286 287 289 290 292 293 294 295 296 297 298 298 298 299 299 300 301 303 305 307 308 308 308 307 308
238 240 242 244 245 247 248 249 250 251 251 251 252 250 247 248 252 255 256 255 255 256 258 259 260 261 262 263 263 264 265 265 266 266 267 267 267 268 268 268 268 268 268 268 269 270 271 272 273 274 275 276 277 278 279 280 282 283 284 285 287 288 290 291 292 293 294 295 296 297 297 298 299 300 301 302 303 304 306 308 308 308 307 307 307
238 239 241 242 244 245 246 247 248 250 250 251 252 252 250 248 250 253 256 258 259 259 259 259 260 262 263 264 264 264 264 265 266 266 267 267 268 268 268 268 269 269 270 271 271 272 273 273 274 275 276 277 279 280 281 283 284 285 286 287 288 289 290 291 291 292 293 295 296 297 298 299 301 302 303 304 304 305 306 307 307 307 306 306 306
238 239 239 241 242 243 245 246 247 249 250 250 251 252 253 253 253 253 255 257 259 261 262 263 263 265 266 267 267 267 267 268 269 269 270 270 271 271 271 271 272 272 273 274 274 275 275 276 277 278 279 280 281 282 283 284 284 285 286 287 288 288 289 289 289 291 292 293 295 296 298 301 303 304 305 305 305 305 305 305 305 305 305 305 305
238 238 239 240 241 242 244 245 247 248 250 251 252 252 253 254 255 256 257 258 259 260 262 264 265 266 268 269 270 270 270 271 271 271 272 272 273 273 273 274 274 274 275 275 276 276 277 278 278 279 280 280 281 282 283 284 284 285 286 286 287 287 287 288 289 290 291 291 293 296 300 302 304 304 304 304 304 304 304 303 303 303 304 304 304
238 238 239 240 241 242 243 244 246 247 248 250 251 252 254 255 256 257 258 259 260 261 263 264 265 267 268 269 269 270 271 271 271 272 272 272 272 273 273 273 274 274 275 275 276 276 277 277 278 279 279 280 281 282 282 283 284 284 285 285 286 286 287 287 288 289 289 290 293 296 300 302 303 304 303 303 303 302 302 302 302 303 303 303 303
238 239 240 240 242 243 244 244 245 247 248 249 250 251 253 254 256 257 258 259 261 262 263 264 265 266 267 268 269 269 270 270 271 271 271 271 272 272 272 273 273 273 274 274 275 275 276 276 277 278 279 280 281 282 282 283 284 284 285 286 287 287 287 288 288 288 288 290 292 295 298 301 303 303 302 302 302 302 302 302 303 303 303 303 303
239 239 240 241 242 243 244 245 246 247 248 249 250 252 253 254 256 258 259 260 261 263 264 264 265 266 267 267 268 268 269 269 269 269 270 270 270 271 271 272 272 272 273 273 274 274 275 276 277 278 279 280 281 282 282 283 284 285 286 287 287 288 288 288 288 288 289 290 292 294 297 301 302 302 302 302 302 302 302 303 303 303 303 303 303
Height
10971 10973 10975 10978 10980 10981 10983 10986 10988 10989 10989 10990 10991 10991 10992 10993 10994 10995 10996 10998 10999 11000 11001 11002 11003 11004 11005 11005 11006 11007 11007 11007 11007 11007 11006 11005 11005 11004 11003 11002 11002 11001 11000 10999 10998 10997 10995 10994 10993 10991 10990 10988 10986 10985 10983 10981 10979 10977 10975 10974 10972 10970 10968 10965 10963 10961 10959 10957 10955 10952 10950 10947 10945 10943 10940 10938 10935 10932 10930 10927 10925 10924 10922 10921 10920
10968 10970 10973 10975 10977 10978 10981 10984 10985 10986 10987 10988 10989 10989 10990 10991 10992 10993 10995 10996 10997 10998 10999 11000 11001 11002 11003 11004 11005 11005 11005 11006 11005 11005 11005 11004 11004 11003 11002 11001 11000 10999 10998 10998 10996 10995 10994 10992 10991 10990 10988 10987 10985 10983 10982 10980 10978 10976 10975 10973 10971 10970 10968 10965 10963 10962 10960 10958 10956 10953 10950 10947 10945 10943 10941 10938 10936 10933 10930 10928 10927 10925 10924 10923 10922
10965 10968 10971 10973 10974 10976 10979 10981 10983 10984 10985 10986 10987 10987 10988 10989 10990 10992 10993 10994 10995 10996 10998 10999 11000 11001 11002 11002 11003 11003 11003 11003 11003 11004 11003 11003 11002 11001 11001 11000 10999 10998 10997 10996 10995 10993 10992 10990 10989 10988 10986 10985 10983 10982 10980 10979 10977 10975 10974 10972 10971 10970 10968 10966 10964 10962 10960 10958 10956 10954 10950 10948 10945 10942 10940 10938 10936 10934 10932 10930 10929 10927 10926 10925 10924
10963 10965 10967 10970 10972 10974 10975 10977 10979 10981 10982 10984 10984 10985 10986 10987 10989 10990 10991 10992 10993 10994 10996 10997 10998 10999 11000 11000 11001 11001 11001 11001 11002 11002 11002 11001 11001 11000 10999 10998 10997 10997 10996 10995 10994 10992 10991 10989 10988 10986 10985 10983 10982 10980 10978 10977 10976 10975 10973 10972 10970 10969 10967 10965 10963 10961 10959 10956 10955 10952 10949 10946 10944 10941 10939 10938 10936 10934 10933 10931 10930 10929 10928 10927 10926
10960 10961 10964 10967 10969 10970 10971 10973 10974 10977 10979 10981 10982 10982 10984 10985 10987 10988 10989 10990 10991 10992 10994 10995 10996 10997 10998 10998 10999 10999 11000 11000 11000 11000 11000 11000 10999 10998 10997 10997 10996 10995 10994 10994 10992 10991 10990 10988 10987 10985 10983 10982 10980 10978 10977 10975 10974 10973 10972 10971 10969 10967 10966 10964 10962 10960 10958 10955 10954 10952 10949 10946 10943 10940 10937 10937 10936 10934 10933 10932 10931 10930 10929 10928 10927
10956 10958 10960 10963 10965 10966 10967 10968 10970 10973 10976 10978 10979 10980 10981 10982 10984 10986 10987 10988 10989 10990 10992 10993 10993 10994 10995 10996 10997 10997 10998 10998 10998 10998 10998 10998 10997 10996 10996 10995 10994 10994 10993 10992 10991 10990 10989 10987 10986 10984 10982 10981 10979 10977 10975 10974 10973 10972 10971 10970 10968 10967 10965 10963 10961 10959 10957 10954 10953 10951 10949 10946 10943 10939 10937 10936 10935 10934 10932 10932 10931 10931 10929 10928 10927
10952 10954 10956 10958 10960 10962 10963 10964 10966 10969 10972 10975 10976 10977 10978 10980 10981 10983 10984 10985 10986 10987 10989 10990 10991 10992 10993 10994 10994 10995 10996 10996 10996 10997 10997 10996 10995 10995 10994 10993 10992 10992 10991 10990 10989 10988 10987 10986 10985 10983 10981 10979 10977 10975 10974 10973 10972 10971 10970 10969 10967 10966 10964 10963 10960 10958 10956 10954 10952 10950 10948 10945 10942 10939 10937 10935 10934 10933 10932 10931 10931 10931 10930 10928 10927
10948 10950 10952 10953 10955 10958 10960 10961 10963 10965 10969 10971 10973 10973 10974 10976 10978 10980 10981 10982 10983 10985 10986 10987 10988 10989 10990 10991 10992 10993 10993 10994 10994 10994 10995 10994 10994 10993 10992 10991 10990 10989 10988 10988 10987 10986 10985 10984 10983 10981 10979 10978 10976 10974 10973 10972 10971 10970 10970 10969 10967 10965 10964 10962 10959 10957 10956 10953 10951 10948 10946 10944 10942 10939 10937 10935 10934 10934 10932 10931 10930 10930 10929 10928 10927
10943 10946 10947 10949 10951 10954 10957 10959 10961 10962 10965 10967 10968 10969 10971 10972 10975 10977 10978 10979 10981 10982 10983 10984 10985 10986 10988 10989 10989 10990 10991 10991 10991 10992 10992 10992 10992 10991 10990 10990 10988 10987 10986 10985 10985 10984 10983 10982 10981 10979 10978 10976 10974 10973 10972 10971 10970 10970 10969 10969 10967 10966 10964 10963 10960 10958 10956 10954 10951 10947 10944 10943 10941 10939 10938 10937 10935 10935 10933 10930 10928 10927 10927 10927 10926
10939 10941 10943 10945 10948 10952 10954 10956 10958 10959 10961 10962 10964 10965 10967 10969 10971 10973 10974 10976 10978 10979 10979 10980 10981 10983 10985 10985 10986 10987 10988 10988 10989 10989 10989 10989 10989 10989 10988 10987 10987 10986 10984 10984 10983 10982 10981 10980 10979 10977 10976 10974 10972 10971 10970 10970 10969 10969 10968 10968 10967 10965 10964 10963 10961 10958 10955 10953 10951 10947 10943 10941 10941 10939 10939 10938 10938 10937 10934 10930 10927 10926 10925 10925 10924
10934 10936 10939 10942 10945 10948 10949 10952 10954 10956 10957 10958 10959 10961 10963 10965 10966 10968 10970 10972 10974 10975 10975 10976 10978 10980 10981 10981 10982 10983 10985 10985 10985 10986 10986 10986 10986 10986 10986 10985 10984 10983 10982 10982 10981 10980 10979 10978 10977 10975 10974 10972 10970 10969 10969 10968 10968 10968 10967 10967 10966 10964 10963 10961 10960 10958 10954 10951 10948 10945 10941 10939 10939 10939 10938 10939 10939 10938 10936 10933 10929 10926 10924 10924 10923
10930 10933 10936 10939 10941 10943 10945 10947 10949 10951 10953 10954 10955 10957 10959 10960 10961 10963 10965 10967 10969 10970 10971 10972 10974 10976 10977 10977 10978 10980 10981 10981 10981 10982 10982 10983 10983 10983 10982 10982 10981 10981 10980 10979 10978 10977 10977 10976 10974 10973 10972 10970 10968 10967 10967 10967 10966 10966 10966 10966 10965 10963 10961 10959 10958 10957 10953 10948 10944 10941 10938 10936 10936 10936 10937 10938 10938 10938 10938 10934 10930 10927 10924 10921 10918
10926 10929 10932 10935 10937 10939 10941 10943 10945 10946 10948 10950 10952 10953 10954 10955 10957 10958 10960 10962 10964 10965 10966 10968 10970 10971 10973 10973 10974 10975 10976 10977 10977 10978 10978 10979 10979 10979 10979 10978 10978 10977 10977 10976 10975 10975 10974 10973 10972 10971 10969 10968 10966 10966 10965 10965 10965 10965 10965 10965 10964 10963 10960 10958 10956 10954 10951 10946 10940 10937 10935 10931 10930 10932 10935 10936 10935 10936 10935 10932 10928 10927 10925 10919 10914
10922 10925 10928 10931 10932 10934 10937 10938 10940 10942 10944 10946 10948 10949 10950 10951 10953 10954 10956 10957 10958 10959 10961 10963 10965 10967 10968 10969 10970 10971 10972 10973 10973 10973 10974 10974 10975 10975 10974 10974 10974 10973 10973 10973 10972 10972 10971 10970 10970 10968 10967 10966 10964 10964 10963 10963 10963 10964 10964 10964 10964 10962 10959 10955 10954 10951 10948 10944 10939 10936 10933 10927 10923 10925 10929 10931 10930 10930 10930 10926 10922 10922 10923 10918 10909
10918 10921 10924 10926 10928 10930 10932 10934 10936 10938 10940 10942 10943 10945 10946 10948 10949 10950 10952 10953 10954 10955 10957 10959 10960 10962 10964 10965 10966 10967 10968 10969 10969 10969 10970 10970 10970 10970 10970 10970 10970 10970 10970 10969 10968 10968 10967 10967 10966 10966 10965 10964 10962 10962 10961 10961 10962 10962 10962 10963 10963 10960 10957 10954 10952 10949 10946 10942 10937 10933 10931 10927 10923 10921 10923 10925 10925 10926 10925 10919 10914 10918 10921 10915 10902
10913 10916 10919 10921 10923 10925 10927 10930 10932 10934 10936 10937 10938 10939 10941 10943 10945 10946 10948 10948 10949 10950 10952 10954 10955 10958 10960 10961 10962 10962 10964 10965 10965 10965 10966 10966 10966 10966 10966 10966 10966 10966 10966 10965 10965 10964 10964 10963 10963 10963 10962 10961 10960 10959 10959 10959 10959 10960 10960 10961 10961 10958 10955 10952 10950 10949 10948 10943 10934 10928 10928 10927 10924 10920 10918 10920 10922 10925 10924 10914 10907 10912 10916 10910 10898
10908 10911 10913 10916 10918 10921 10923 10925 10927 10930 10931 10932 10934 10935 10936 10938 10939 10941 10942 10943 10945 10946 10947 10949 10951 10953 10955 10956 10957 10958 10960 10961 10961 10961 10962 10962 10962 10962 10962 10962 10962 10962 10962 10961 10961 10961 10960 10959 10959 10959 10959 10959 10958 10957 10956 10956 10956 10957 10957 10958 10959 10956 10952 10950 10950 10949 10945 10938 10928 10923 10923 10923 10919 10914 10912 10913 10914 10916 10917 10910 10904 10905 10908 10905 10898
10902 10905 10908 10911 10913 10916 10918 10921 10923 10925 10927 10928 10929 10930 10932 10933 10934 10936 10937 10938 10939 10941 10942 10944 10946 10948 10950 10951 10952 10954 10955 10956 10956 10957 10958 10958 10957 10958 10958 10958 10958 10958 10958 10957 10956 10956 10956 10955 10955 10955 10955 10955 10955 10954 10954 10953 10953 10954 10954 10955 10956 10953 10948 10948 10947 10943 10938 10932 10924 10919 10919 10918 10915 10910 10905 10904 10903 10904 10904 10902 10898 10898 10898 10898 10895
10896 10899 10903 10906 10909 10911 10914 10916 10918 10921 10922 10924 10925 10926 10927 10928 10929 10931 10932 10933 10934 10936 10937 10939 10940 10942 10944 10946 10947 10949 10950 10951 10952 10952 10953 10953 10953 10953 10953 10953 10953 10954 10954 10952 10951 10952 10952 10951 10950 10950 10950 10951 10951 10951 10951 10950 10950 10951 10950 10950 10951 10950 10946 10946 10945 10941 10936 10930 10922 10918 10917 10917 10914 10910 10904 10900 10897 10895 10894 10893 10891 10890 10888 10888 10886
10891 10895 10898 10901 10904 10907 10909 10912 10914 10916 10918 10920 10921 10922 10922 10923 10924 10925 10926 10927 10929 10931 10932 10933 10935 10937 10939 10940 10942 10943 10944 10946 10946 10947 10948 10948 10947 10948 10948 10948 10949 10950 10949 10947 10947 10947 10947 10947 10946 10945 10945 10946 10946 10946 10947 10947 10947 10947 10947 10946 10947 10946 10944 10944 10945 10944 10938 10927 10918 10915 10915 10914 10911 10908 10905 10900 10895 10892 10891 10891 10889 10887 10883 10881 10878
10888 10890 10893 10895 10898 10901 10904 10907 10909 10912 10914 10915 10916 10917 10917 10918 10919 10920 10921 10923 10924 10925 10927 10928 10929 10931 10933 10934 10936 10937 10938 10940 10941 10942 10943 10943 10942 10942 10942 10942 10944 10945 10944 10942 10942 10942 10942 10942 10942 10941 10941 10941 10942 10942 10942 10942 10942 10942 10942 10942 10942 10942 10941 10939 10938 10936 10930 10919 10913 10912 10911 10910 10908 10906 10903 10899 10894 10889 10888 10887 10885 10882 10878 10875 10872
10882 10885 10887 10890 10893 10895 10899 10902 10904 10907 10909 10910 10911 10911 10912 10913 10914 10915 10916 10918 10919 10920 10921 10923 10924 10926 10927 10928 10929 10930 10932 10934 10936 10936 10937 10937 10937 10936 10936 10937 10939 10940 10938 10937 10937 10937 10937 10937 10937 10937 10937 10937 10937 10937 10937 10937 10937 10937 10937 10938 10938 10937 10936 10934 10930 10925 10919 10914 10910 10909 10907 10906 10905 10902 10898 10895 10890 10885 10882 10879 10876 10875 10872 10869 10867
10876 10879 10882 10884 10887 10890 10893 10897 10899 10902 10903 10904 10905 10906 10907 10908 10909 10910 10912 10913 10914 10915 10916 10917 10919 10920 10921 10922 10922 10924 10925 10928 10930 10931 10931 10931 10931 10931 10931 10932 10933 10934 10932 10931 10932 10932 10932 10932 10932 10932 10932 10932 10932 10932 10931 10932 10932 10932 10932 10933 10934 10931 10928 10928 10926 10922 10917 10913 10910 10906 10904 10903 10900 10897 10895 10891 10886 10882 10880 10875 10870 10867 10865 10863 10860
10870 10873 10876 10879 10881 10885 10888 10891 10894 10895 10896 10897 10898 10899 10901 10903 10904 10905 10907 10908 10909 10910 10911 10912 10913 10914 10915 10916 10917 10918 10920 10921 10923 10925 10926 10925 10925 10926 10926 10926 10928 10927 10926 10926 10926 10926 10926 10926 10926 10925 10925 10925 10925 10926 10926 10926 10927 10927 10927 10927 10927 10925 10923 10922 10921 10919 10917 10913 10910 10906 10904 10901 10898 10896 10893 10889 10884 10880 10877 10873 10868 10863 10859 10856 10853
10865 10868 10870 10872 10875 10878 10882 10885 10887 10888 10889 10890 10892 10893 10896 10898 10899 10900 10902 10903 10904 10905 10906 10907 10908 10909 10910 10911 10912 10913 10914 10916 10917 10918 10920 10920 10921 10921 10921 10921 10922 10921 10920 10920 10920 10920 10920 10920 10919 10918 10918 10919 10919 10920 10921 10921 10921 10921 10921 10921 10920 10919 10918 10917 10915 10914 10912 10910 10908 10905 10902 10899 10897 10894 10891 10887 10882 10879 10877 10873 10867 10860 10856 10853 10849
10860 10863 10865 10866 10869 10872 10875 10878 10880 10881 10883 10884 10886 10888 10890 10892 10893 10895 10896 10897 10898 10900 10902 10903 10904 10904 10905 10906 10907 10908 10909 10910 10911 10912 10914 10915 10916 10916 10916 10916 10916 10915 10914 10914 10914 10914 10914 10914 10913 10913 10913 10914 10914 10914 10915 10915 10915 10915 10915 10914 10913 10912 10911 10910 10909 10907 10906 10904 10903 10901 10898 10896 10893 10890 10888 10884 10880 10876 10875 10872 10866 10859 10854 10852 10848
10856 10858 10860 10861 10864 10866 10868 10871 10873 10875 10877 10879 10881 10883 10885 10886 10888 10889 10891 10892 10894 10896 10897 10898 10899 10899 10900 10901 10902 10903 10904 10904 10905 10906 10908 10909 10910 10911 10910 10910 10910 10910 10909 10909 10908 10909 10909 10909 10908 10908 10908 10908 10908 10908 10908 10908 10908 10908 10908 10907 10907 10906 10905 10903 10902 10900 10899 10897 10896 10894 10892 10890 10888 10886 10883 10880 10875 10872 10869 10867 10864 10859 10853 10849 10846
10852 10854 10855 10857 10858 10860 10862 10864 10867 10869 10871 10873 10874 10877 10879 10881 10883 10884 10886 10888 10889 10890 10891 10892 10893 10894 10895 10896 10897 10898 10898 10899 10900 10901 10902 10903 10904 10904 10905 10905 10905 10904 10904 10904 10904 10904 10904 10903 10903 10903 10903 10903 10902 10902 10902 10902 10902 10902 10901 10900 10900 10899 10898 10896 10895 10893 10892 10890 10888 10887 10885 10883 10881 10879 10877 10873 10869 10866 10863 10861 10858 10854 10849 10846 10842
10848 10849 10850 10852 10853 10855 10856 10858 10860 10862 10864 10866 10868 10870 10872 10875 10877 10878 10880 10882 10883 10884 10885 10886 10887 10889 10890 10891 10892 10892 10893 10894 10895 10895 10896 10897 10897 10898 10898 10899 10899 10899 10898 10898 10898 10898 10898 10898 10898 10897 10897 10897 10896 10896 10896 10896 10895 10894 10894 10894 10893 10892 10891 10890 10888 10886 10885 10884 10882 10880 10878 10876 10874 10872 10870 10867 10863 10859 10856 10854 10851 10847 10843 10840 10837
10843 10844 10846 10847 10848 10849 10851 10852 10854 10856 10857 10860 10862 10864 10866 10868 10870 10872 10874 10876 10877 10878 10879 10879 10881 10883 10885 10885 10886 10887 10887 10888 10889 10890 10890 10891 10892 10892 10892 10893 10893 10892 10892 10892 10892 10893 10893 10892 10891 10891 10890 10890 10890 10890 10890 10889 10888 10887 10887 10887 10886 10885 10884 10883 10881 10880 10878 10876 10875 10873 10871 10869 10868 10865 10862 10860 10857 10853 10849 10846 10843 10840 10837 10834 10830
10837 10839 10840 10842 10843 10844 10845 10847 10848 10850 10851 10854 10856 10858 10860 10862 10864 10866 10867 10869 10871 10872 10873 10873 10875 10877 10879 10879 10880 10881 10881 10882 10883 10884 10884 10885 10886 10886 10886 10887 10887 10886 10886 10886 10886 10886 10886 10885 10885 10885 10884 10884 10884 10884 10883 10882 10881 10880 10880 10879 10879 10878 10877 10875 10874 10873 10871 10869 10867 10865 10863 10861 10860 10858 10855 10852 10850 10847 10842 10839 10836 10833 10829 10825 10822
10831 10833 10835 10836 10838 10839 10840 10842 10843 10844 10846 10848 10849 10852 10854 10856 10858 10859 10861 10863 10864 10866 10867 10868 10869 10870 10872 10873 10874 10875 10875 10876 10877 10878 10878 10879 10879 10880 10880 10881 10880 10880 10880 10881 10880 10879 10879 10879 10879 10878 10878 10878 10878 10877 10876 10875 10874 10873 10872 10872 10871 10870 10870 10869 10867 10865 10864 10862 10860 10858 10855 10853 10852 10850 10847 10845 10843 10840 10836 10832 10830 10827 10822 10818 10814
10825 10827 10829 10830 10832 10833 10835 10836 10838 10839 10840 10842 10843 10845 10847 10849 10851 10853 10854 10856 10858 10859 10860 10861 10862 10863 10865 10866 10867 10867 10868 10869 10870 10871 10871 10872 10873 10874 10874 10874 10874 10874 10875 10875 10874 10873 10873 10872 10872 10872 10872 10871 10871 10870 10869 10869 10868 10867 10865 10864 10863 10863 10862 10861 10860 10858 10856 10855 10853 10851 10848 10846 10844 10842 10840 10837 10834 10832 10828 10825 10822 10820 10816 10811 10807
10819 10821 10823 10825 10826 10828 10829 10830 10832 10833 10835 10836 10837 10839 10840 10842 10844 10846 10848 10850 10851 10852 10853 10854 10855 10856 10858 10859 10860 10860 10860 10862 10863 10864 10865 10865 10866 10868 10869 10869 10869 10869 10869 10869 10868 10867 10866 10866 10865 10865 10865 10864 10864 10864 10863 10862 10861 10859 10858 10857 10856 10855 10855 10853 10852 10850 10849 10847 10845 10843 10840 10838 10836 10835 10832 10829 10826 10823 10819 10816 10814 10812 10809 10805 10800
10813 10815 10817 10819 10821 10822 10823 10824 10826 10827 10829 10830 10832 10833 10834 10836 10838 10840 10841 10843 10844 10846 10846 10847 10847 10848 10850 10851 10852 10852 10853 10855 10857 10858 10859 10860 10861 10862 10863 10864 10864 10863 10861 10861 10860 10860 10859 10858 10858 10857 10857 10857 10858 10858 10856 10855 10854 10852 10851 10850 10849 10848 10847 10846 10845 10843 10841 10839 10837 10834 10832 10830 10828 10826 10824 10821 10818 10815 10812 10808 10804 10802 10801 10798 10793
10807 10809 10812 10814 10815 10816 10818 10819 10821 10822 10824 10825 10826 10827 10829 10831 10832 10834 10835 10836 10837 10838 10839 10839 10839 10840 10842 10844 10845 10845 10846 10849 10851 10852 10853 10854 10856 10858 10859 10858 10856 10853 10853 10852 10852 10851 10851 10850 10850 10850 10850 10851 10851 10850 10849 10848 10847 10845 10843 10842 10841 10840 10839 10838 10837 10835 10833 10831 10829 10826 10824 10822 10821 10818 10815 10812 10809 10806 10803 10800 10796 10793 10790 10789 10785
10801 10803 10805 10807 10809 10811 10812 10814 10816 10817 10818 10820 10821 10822 10824 10825 10827 10828 10829 10830 10831 10831 10831 10832 10832 10833 10836 10838 10839 10840 10841 10842 10844 10846 10848 10849 10850 10852 10852 10848 10844 10842 10842 10843 10843 10842 10843 10842 10842 10843 10843 10843 10842 10842 10841 10840 10839 10837 10836 10834 10833 10832 10831 10830 10829 10827 10826 10823 10820 10818 10816 10814 10812 10810 10807 10804 10801 10797 10794 10791 10788 10783 10780 10777 10775
10794 10796 10798 10800 10802 10804 10806 10808 10810 10811 10813 10814 10816 10817 10818 10820 10822 10822 10823 10824 10825 10825 10826 10826 10827 10828 10830 10832 10833 10834 10835 10836 10838 10839 10840 10840 10840 10840 10840 10838 10834 10833 10833 10834 10834 10834 10835 10835 10835 10835 10834 10834 10834 10833 10833 10832 10831 10829 10828 10827 10825 10824 10823 10821 10820 10819 10817 10815 10812 10809 10808 10806 10804 10801 10798 10795 10792 10789 10786 10782 10779 10775 10771 10767 10764
10787 10789 10791 10793 10795 10797 10799 10801 10803 10805 10807 10808 10810 10812 10813 10815 10816 10817 10817 10818 10819 10820 10821 10821 10822 10823 10824 10825 10827 10828 10829 10830 10832 10832 10832 10832 10831 10830 10829 10829 10827 10825 10825 10825 10825 10826 10826 10826 10826 10826 10826 10826 10826 10825 10825 10824 10823 10821 10820 10818 10817 10816 10814 10812 10811 10810 10808 10806 10803 10801 10799 10797 10795 10792 10789 10787 10784 10780 10777 10774 10770 10767 10763 10759 10755
10778 10781 10783 10785 10787 10789 10792 10794 10796 10798 10800 10802 10804 10805 10807 10809 10811 10811 10812 10812 10814 10817 10818 10817 10817 10818 10820 10820 10820 10822 10823 10823 10824 10825 10825 10825 10824 10822 10820 10819 10818 10817 10817 10817 10818 10818 10817 10816 10817 10817 10817 10817 10817 10817 10816 10816 10815 10813 10812 10810 10808 10807 10805 10803 10801 10800 10798 10796 10794 10791 10789 10787 10785 10783 10780 10777 10775 10771 10769 10766 10762 10758 10754 10751 10748
10770 10772 10775 10777 10779 10782 10784 10786 10788 10791 10793 10795 10797 10799 10800 10803 10804 10806 10806 10807 10808 10812 10814 10812 10810 10812 10815 10815 10814 10815 10815 10816 10817 10818 10818 10818 10817 10816 10813 10811 10811 10811 10811 10811 10810 10810 10809 10809 10809 10809 10809 10808 10808 10808 10807 10807 10806 10804 10803 10801 10799 10797 10795 10793 10791 10790 10788 10786 10784 10782 10779 10777 10776 10774 10770 10767 10765 10762 10760 10758 10755 10750 10746 10742 10739
10761 10764 10766 10769 10772 10774 10777 10779 10781 10783 10785 10788 10790 10792 10794 10796 10798 10801 10803 10803 10801 10802 10804 10804 10803 10805 10808 10808 10807 10808 10808 10808 10809 10810 10811 10811 10810 10809 10807 10806 10805 10805 10804 10804 10803 10802 10802 10802 10801 10801 10801 10800 10799 10799 10798 10797 10796 10795 10793 10791 10789 10787 10785 10783 10781 10779 10778 10776 10774 10772 10769 10767 10765 10762 10760 10757 10755 10753 10752 10749 10746 10742 10737 10733 10730
10754 10756 10759 10761 10764 10766 10769 10771 10773 10775 10778 10781 10783 10786 10789 10790 10790 10793 10798 10797 10793 10791 10793 10794 10795 10797 10798 10799 10799 10800 10800 10800 10800 10801 10801 10802 10802 10801 10801 10800 10799 10798 10797 10797 10795 10795 10795 10794 10794 10793 10792 10791 10790 10789 10788 10786 10785 10784 10783 10781 10779 10776 10774 10772 10771 10769 10768 10765 10763 10761 10759 10756 10753 10750 10748 10746 10745 10743 10741 10738 10735 10732 10728 10724 10721
10746 10749 10751 10753 10756 10758 10760 10762 10765 10767 10770 10772 10775 10780 10785 10783 10778 10779 10784 10786 10784 10783 10784 10785 10787 10788 10789 10790 10790 10790 10790 10791 10792 10792 10792 10792 10792 10792 10792 10792 10791 10790 10789 10789 10788 10787 10787 10786 10785 10784 10783 10781 10780 10778 10777 10775 10774 10773 10772 10770 10768 10765 10764 10762 10760 10759 10757 10754 10752 10749 10747 10745 10743 10739 10737 10735 10733 10731 10728 10725 10722 10719 10716 10712 10710
10739 10741 10743 10745 10747 10749 10751 10753 10756 10758 10761 10763 10765 10770 10775 10773 10768 10767 10770 10773 10774 10775 10776 10777 10778 10779 10780 10781 10781 10782 10782 10782 10782 10783 10783 10783 10783 10783 10783 10782 10781 10781 10780 10780 10779 10778 10777 10777 10776 10774 10772 10771 10769 10767 10766 10764 10763 10761 10760 10758 10756 10755 10753 10751 10749 10747 10745 10743 10741 10738 10735 10734 10732 10729 10726 10723 10720 10717 10715 10712 10709 10706 10703 10700 10698
10730 10733 10735 10736 10738 10739 10742 10744 10746 10748 10751 10754 10756 10758 10761 10762 10761 10761 10761 10762 10763 10765 10767 10768 10769 10770 10771 10772 10772 10773 10773 10774 10774 10774 10774 10774 10774 10773 10773 10772 10772 10771 10770 10769 10769 10768 10767 10766 10765 10763 10762 10760 10758 10756 10755 10753 10751 10749 10747 10746 10745 10743 10742 10740 10737 10735 10734 10732 10730 10727 10724 10722 10720 10718 10714 10711 10708 10704 10701 10699 10696 10693 10690 10687 10684
10720 10723 10725 10727 10728 10730 10733 10735 10737 10739 10741 10744 10746 10748 10750 10752 10753 10754 10754 10754 10755 10756 10757 10758 10759 10760 10761 10762 10763 10763 10764 10764 10763 10763 10763 10763 10763 10762 10762 10761 10761 10760 10759 10758 10757 10756 10755 10753 10752 10751 10750 10748 10746 10745 10743 10742 10740 10737 10735 10734 10732 10731 10729 10727 10726 10724 10722 10720 10718 10715 10712 10709 10707 10705 10702 10699 10695 10692 10689 10687 10684 10681 10678 10674 10671
10709 10713 10715 10717 10720 10722 10724 10726 10728 10730 10732 10734 10736 10738 10740 10741 10743 10745 10746 10747 10748 10748 10749 10749 10751 10752 10752 10753 10753 10753 10753 10753 10753 10752 10752 10752 10751 10750 10749 10749 10749 10748 10747 10746 10745 10744 10743 10741 10740 10739 10737 10736 10735 10733 10732 10730 10729 10726 10724 10722 10720 10718 10716 10714 10713 10711 10709 10707 10705 10703 10699 10696 10694 10692 10690 10686 10683 10680 10677 10674 10672 10669 10666 10662 10659
10699 10703 10706 10709 10711 10713 10715 10717 10719 10721 10724 10725 10727 10729 10730 10732 10734 10735 10737 10738 10740 10741 10742 10742 10743 10743 10744 10743 10743 10743 10743 10743 10742 10742 10741 10741 10740 10739 10738 10737 10737 10736 10735 10734 10733 10732 10731 10730 10728 10727 10726 10724 10723 10722 10720 10718 10716 10714 10712 10710 10708 10706 10704 10702 10700 10698 10696 10693 10691 10689 10686 10683 10681 10679 10677 10674 10671 10668 10664 10661 10658 10656 10653 10649 10646
10689 10693 10696 10699 10701 10703 10705 10708 10711 10713 10715 10717 10718 10719 10721 10723 10724 10726 10727 10729 10731 10732 10733 10734 10734 10734 10734 10734 10733 10733 10733 10732 10731 10731 10730 10728 10727 10726 10726 10725 10725 10724 10723 10722 10721 10720 10719 10718 10717 10716 10714 10713 10711 10709 10708 10705 10703 10701 10699 10697 10695 10693 10691 10688 10686 10685 10683 10680 10677 10674 10672 10670 10668 10666 10664 10661 10658 10654 10651 10647 10644 10641 10638 10635 10632
10680 10683 10686 10689 10691 10694 10697 10699 10702 10704 10705 10707 10709 10711 10713 10715 10717 10717 10719 10721 10723 10723 10724 10725 10725 10725 10725 10724 10723 10722 10721 10720 10719 10718 10717 10715 10714 10714 10713 10713 10712 10711 10710 10709 10708 10708 10707 10706 10705 10704 10702 10700 10699 10697 10695 10692 10690 10688 10685 10683 10681 10680 10678 10676 10674 10672 10670 10667 10664 10661 10658 10656 10654 10651 10649 10646 10642 10639 10635 10632 10629 10626 10623 10620 10617